SCP
0 0 0 0 0 0 0 0 0 0 0 0 0 0 -0 0 0 0 0 0 0 0 0 0 0 0 0 0 0 0 0 0 0 -0 -0 -0 -0 -0 -0 -0 -0 -0 -0
0 0 0 0 0 0 0 0 0 0 0 0 0 0 -0 -0 -0 0 0 0 0 0 0 0 0 0 0 0 0 0 0 0 0 0 0 -0 -0 -0 -0 -0 -0 -0 -0
0 0 0 0 0 0 0 0 0 0 0 0 0 0 0 0 0 0 0 0 0 0 0 0 0 0 0 0 0 0 0 0 0 0 0 0 -0 -0 -0 -0 -0 -0 -0
0 0 0 0 0 0 0 0 0 0 0 -0 -0 -0 -0 0 0 0 0 0 0 0 0 0 0 0 0 0 0 0 0 0 0 0 0 0 0 -0 -0 -0 -0 -0 -0
0 0 0 0 0 0 0 0 0 0 0 0 -0 -0 -0 -0 0 -0 -0 -0 -0 -0 0 0 0 0 0 0 0 0 0 0 0 0 0 0 0 0 -0 -0 -0 -0 -0
-0 0 0 0 0 0 0 0 0 0 0 0 0 0 0 0 0 0 -0 -0 0 0 -0 -0 0 0 0 0 0 0 0 0 0 0 0 0 0 0 0 -0 -0 -0 -0
-0 -0 0 0 0 1 1 0 0 0 0 0 0 0 0 0 0 0 0 0 0 0 0 0 0 0 0 0 0 0 0 0 0 0 0 0 0 0 0 0 0 -0 -0
-0 0 0 0 0 1 1 1 1 1 0 0 0 0 0 0 0 0 0 0 0 0 0 0 0 0 0 0 0 0 0 0 0 0 0 0 0 0 0 0 0 -0 -0
-0 0 0 0 1 1 1 1 1 0 0 0 0 0 0 0 0 0 -0 0 0 0 0 0 0 0 0 0 0 0 0 0 0 0 0 0 0 0 0 0 0 -0 -0
-0 0 0 0 0 0 0 0 1 0 0 0 0 0 0 0 0 0 0 0 0 0 0 0 0 0 0 0 0 0 0 0 0 0 0 0 0 0 0 0 0 0 -0
0 0 0 0 0 0 0 0 0 0 0 0 0 0 0 0 0 0 0 0 0 0 0 0 0 0 0 0 0 0 0 0 0 0 1 0 0 0 0 0 0 0 0
0 0 0 0 0 0 0 0 0 0 0 0 0 0 0 0 0 0 0 0 0 0 0 0 0 0 0 0 0 0 0 0 0 0 0 0 0 0 0 0 0 0 0
0 0 0 0 0 0 0 0 0 0 0 0 0 0 0 0 0 0 0 0 0 0 0 0 0 0 0 0 0 0 0 0 0 0 0 0 0 1 0 0 0 0 0
0 0 0 0 0 0 0 0 0 0 0 0 0 0 0 0 0 0 0 0 0 0 0 0 0 0 0 0 0 0 0 0 0 0 0 0 0 0 1 1 0 1 0
0 0 0 0 0 0 0 0 0 0 0 0 0 0 0 0 0 0 0 0 0 -0 -0 0 0 0 0 0 0 0 0 0 0 0 0 0 0 0 0 0 0 0 0
0 0 0 0 0 0 0 0 0 0 0 0 0 0 0 0 0 0 0 0 0 0 0 0 0 0 0 0 0 0 0 0 0 0 0 0 0 0 0 0 0 0 0
0 0 0 0 0 0 0 0 0 0 0 0 0 0 0 0 0 0 0 0 0 0 0 0 0 0 0 0 0 0 0 0 0 0 0 0 0 0 0 0 0 0 0
0 0 0 0 0 0 0 0 0 0 0 0 0 0 0 0 0 0 0 0 0 0 0 0 0 0 0 0 0 0 0 0 0 0 0 0 0 0 0 0 0 0 0
0 0 0 0 0 0 0 0 0 0 0 0 0 0 0 0 0 0 0 0 0 0 0 0 0 0 0 0 0 0 0 0 0 0 0 0 0 0 0 0 0 0 0
0 0 0 0 0 0 0 0 0 0 0 0 0 0 0 0 0 0 0 0 0 0 0 0 0 0 0 0 0 0 0 0 0 0 0 0 0 0 0 0 0 0 0
0 0 0 0 0 0 0 0 0 0 0 0 0 0 0 0 0 0 0 0 0 0 0 0 0 0 0 0 0 0 0 0 0 0 0 0 0 0 0 0 0 0 0
0 0 0 0 0 0 0 0 0 0 0 0 0 0 0 0 0 0 0 0 0 0 0 0 0 0 0 0 0 0 0 0 0 0 0 0 0 0 0 0 0 0 0
0 0 0 0 0 0 0 0 0 0 0 0 0 0 0 0 0 0 0 0 0 -0 0 0 0 0 0 0 0 0 0 0 0 0 0 0 0 0 0 0 0 0 0
0 0 0 0 0 0 0 0 0 0 0 0 0 0 0 0 0 0 0 0 -0 0 0 0 0 0 0 0 0 0 0 0 0 0 0 0 0 0 0 0 0 0 0
0 0 0 0 0 0 0 0 0 0 0 0 0 0 0 0 0 0 0 -0 0 -0 0 -0 0 -0 0 0 0 0 0 0 0 0 0 0 0 1 1 0 0 0 0
0 0 0 0 0 0 0 0 0 0 0 0 0 0 0 0 0 0 -0 -0 0 0 0 0 -0 0 0 0 -0 0 0 0 0 0 0 0 0 1 1 1 1 0 0
Wind_Speed_500mb
10 11 15 15 18 20 22 22 23 24 25 26 27 27 27 28 31 32 34 33 39 41 35 34 33 27 26 25 27 27 25 26 28 30 30 29 28 27 26 26 26 23 24
16 18 15 15 19 24 25 27 29 32 33 32 32 32 32 31 33 32 33 34 36 40 44 44 36 34 31 27 29 31 31 30 28 28 30 30 31 31 30 29 29 27 26
16 16 16 15 18 24 27 29 29 31 35 38 37 35 34 36 39 39 37 36 36 37 45 51 50 43 40 36 32 31 32 34 32 29 29 31 31 33 33 33 31 30 32
14 20 22 23 22 27 31 33 35 36 40 42 42 40 40 43 45 43 43 42 49 57 48 44 53 56 53 49 45 41 38 38 40 35 33 32 32 32 33 35 34 32 32
22 24 26 24 22 27 30 35 37 41 43 41 39 40 41 44 46 43 44 44 50 43 35 40 43 48 54 57 54 53 49 46 46 43 40 35 34 34 34 33 34 33 32
33 26 22 18 21 26 30 36 41 44 47 45 45 46 42 39 38 35 34 34 34 38 44 47 49 50 54 54 54 56 55 51 51 48 43 42 38 35 36 36 36 35 34
26 17 17 21 24 30 34 37 47 51 53 50 52 55 55 47 32 38 23 21 31 33 26 31 37 40 44 55 61 59 59 60 57 53 52 47 44 41 38 40 39 39 37
24 25 25 25 28 35 38 42 47 44 49 49 53 52 37 61 16 25 47 37 41 36 35 39 41 46 47 48 46 49 53 56 64 64 59 57 55 51 48 43 43 42 40
27 27 29 30 33 37 40 46 40 41 46 46 37 36 28 21 66 42 60 44 46 47 44 42 43 46 46 47 51 51 52 57 61 65 62 60 59 58 55 56 50 47 45
31 31 33 35 39 41 44 38 35 36 39 41 41 34 31 39 49 44 43 64 59 57 59 54 49 47 46 53 54 56 53 46 53 63 61 63 63 60 58 60 61 55 52
34 36 37 39 40 43 44 39 35 33 32 31 32 39 41 43 44 48 59 69 78 75 71 68 64 59 52 51 53 55 60 58 56 55 57 63 65 64 64 62 64 65 58
36 38 38 39 43 44 43 36 33 30 28 28 28 31 39 44 50 53 63 77 85 90 87 85 81 74 69 62 56 54 55 61 63 67 57 62 65 64 62 63 64 66 70
38 38 39 42 45 43 41 36 30 30 28 29 33 38 39 43 47 56 65 83 77 98 100 96 89 84 80 76 70 60 57 58 61 63 64 60 64 62 60 61 60 66 69
45 46 46 44 43 42 35 30 28 27 30 35 38 40 44 44 48 56 65 79 103 98 95 93 93 93 87 79 75 71 65 58 61 61 66 66 64 63 60 61 60 59 62
60 56 47 45 41 36 28 28 26 29 32 36 41 46 51 58 61 65 73 77 85 86 106 114 95 82 87 87 78 72 71 64 60 63 63 65 69 66 68 67 60 59 60
71 65 46 42 37 28 25 24 26 28 31 38 45 50 55 59 61 68 76 85 90 88 95 96 107 93 84 80 81 79 80 76 72 67 67 67 68 69 69 69 58 56 54
74 54 44 38 31 23 22 22 23 27 33 41 50 58 57 60 67 73 80 86 88 86 98 100 95 96 88 87 81 73 67 73 78 75 69 70 68 69 68 66 64 61 62
57 48 44 34 26 22 21 20 22 31 39 47 59 57 59 65 65 78 82 84 92 99 101 108 106 104 100 89 79 71 68 66 67 72 76 75 73 72 71 69 65 60 56
54 48 41 29 22 21 20 20 26 35 41 50 62 61 66 61 68 75 87 93 95 97 100 102 108 108 104 91 76 72 68 65 69 74 79 77 74 75 71 68 64 59 55
44 42 32 25 20 19 18 23 29 39 45 53 63 64 67 62 75 84 91 100 108 108 108 94 101 101 96 84 71 68 68 68 71 72 71 71 70 73 71 72 64 58 62
40 33 27 21 18 19 20 26 32 42 49 58 66 66 69 64 74 78 92 107 109 98 99 92 87 84 90 76 71 64 63 61 64 61 60 54 62 69 71 68 64 64 62
30 28 24 21 20 18 23 28 37 46 51 61 68 65 65 65 76 82 98 106 87 79 67 63 64 73 85 79 68 61 53 48 52 32 40 46 54 61 62 62 60 56 55
26 25 22 22 19 19 25 31 39 46 54 62 65 66 63 66 76 86 108 108 94 52 43 53 58 57 65 70 64 54 44 42 39 28 15 21 34 46 50 54 52 52 50
25 22 21 20 21 21 28 32 39 46 53 62 57 56 61 69 71 83 104 112 87 46 59 61 61 59 53 45 50 42 37 35 28 29 31 31 28 17 17 32 42 46 45
25 24 20 20 20 25 28 33 38 46 55 63 49 48 57 63 67 78 90 104 83 58 78 73 59 37 33 36 27 30 26 31 27 25 20 24 25 18 12 19 29 38 36
23 22 21 19 24 25 28 31 38 47 58 57 44 43 47 53 62 72 81 88 84 78 78 60 47 30 9 19 30 28 19 24 17 9 14 24 19 19 19 18 17 18 21
Wind_Direction_500mb
341 333 359 359 353 337 324 323 313 308 310 299 293 301 275 277 290 288 285 278 274 270 269 273 270 273 267 269 273 274 277 275 273 271 266 262 261 258 258 261 264 261 257
291 313 316 331 349 337 335 331 313 304 304 309 304 293 286 287 289 293 289 284 282 276 266 265 269 272 269 264 268 269 272 274 273 273 273 266 262 258 253 252 257 262 262
298 303 304 320 332 327 330 333 326 315 307 304 301 297 291 289 285 288 289 285 286 283 275 264 262 264 267 267 263 267 272 270 268 267 269 269 266 260 256 252 247 250 258
312 311 307 314 310 314 319 324 324 321 320 314 299 297 293 294 287 283 286 279 279 291 273 271 267 264 264 264 265 264 265 270 265 262 263 264 263 263 260 255 252 246 248
294 302 313 318 308 305 313 317 320 322 326 324 312 309 301 296 299 284 287 289 278 283 270 267 276 272 266 265 265 264 263 264 267 260 258 261 261 260 259 257 255 252 249
294 290 301 316 311 311 313 311 313 317 323 321 316 313 310 308 302 300 295 289 284 289 269 267 271 270 266 266 268 265 262 260 260 261 257 255 256 258 261 259 256 252 251
272 280 296 300 302 306 313 314 314 313 317 321 319 314 312 312 308 297 291 300 290 299 277 267 270 277 274 265 263 262 265 261 257 255 259 257 251 253 258 259 258 255 253
255 264 277 292 302 310 309 305 307 309 311 318 321 324 330 325 334 300 304 305 300 289 283 272 278 276 276 266 264 259 260 261 260 257 254 255 254 257 257 257 254 254 254
248 260 269 286 301 308 311 310 308 308 309 314 319 320 324 308 314 319 314 312 309 305 301 294 285 282 281 277 269 260 261 251 254 258 256 254 255 255 256 256 255 254 252
244 255 268 284 299 306 311 312 311 308 309 311 315 317 308 304 311 314 310 310 314 310 308 303 295 288 282 271 272 265 255 253 251 250 251 254 255 255 255 254 251 253 255
254 262 272 285 296 306 310 314 317 318 316 318 320 318 315 313 310 308 310 309 309 310 309 306 303 298 290 283 277 267 256 258 254 252 250 252 254 256 255 255 254 249 250
265 270 274 285 294 303 307 314 318 322 322 317 315 314 310 311 312 311 309 308 309 308 306 303 300 298 296 290 283 278 268 257 257 255 255 252 252 253 255 254 254 253 250
266 271 278 283 290 300 304 310 314 320 316 316 315 315 310 307 307 307 309 311 308 307 306 304 302 300 295 291 285 281 272 267 257 252 251 248 245 244 250 253 255 253 251
268 273 278 276 286 294 303 301 311 316 312 317 317 316 313 311 308 306 307 309 308 305 304 300 304 302 298 296 290 283 277 269 263 257 250 246 245 240 242 249 249 254 253
277 274 272 273 282 291 294 299 305 313 318 323 322 321 318 317 312 309 308 308 307 296 300 302 297 295 295 294 289 283 275 270 262 256 255 249 245 245 243 244 253 249 252
273 271 263 270 280 285 295 300 314 325 327 328 328 325 319 321 318 317 313 309 305 297 285 293 301 297 292 287 283 277 274 270 264 256 249 248 246 245 245 244 246 246 247
269 260 261 267 273 285 292 311 320 326 327 331 334 325 320 321 316 319 317 314 313 309 293 293 290 300 296 293 280 278 279 277 262 255 248 244 244 244 244 244 247 250 251
258 256 260 262 274 281 299 308 317 325 330 333 335 329 325 323 319 322 323 323 322 312 295 288 293 288 292 289 286 275 276 280 262 251 245 242 243 242 242 244 246 248 252
251 257 257 265 273 281 295 305 317 326 333 334 335 330 328 326 326 331 332 327 313 306 296 285 287 287 284 285 284 281 278 275 263 260 253 243 237 238 238 238 238 245 240
242 249 258 271 275 294 303 313 318 326 329 333 333 330 328 326 329 337 333 322 317 307 301 286 283 281 280 279 274 278 276 274 267 265 258 249 236 234 236 237 237 236 237
237 249 265 270 278 289 300 311 317 323 327 331 333 332 329 326 333 336 328 329 316 312 305 292 279 275 276 272 271 277 274 275 272 271 258 240 232 229 232 234 236 238 237
249 261 267 266 281 292 299 309 315 318 325 329 332 332 331 332 337 337 334 338 329 315 315 304 291 266 270 266 273 275 274 274 275 265 240 236 229 229 233 232 234 238 239
254 262 266 275 286 285 301 303 310 315 324 328 333 334 337 343 341 341 343 348 337 330 334 332 302 286 280 270 272 271 265 262 263 241 199 227 233 234 237 235 230 237 245
259 268 265 276 284 288 297 302 308 315 325 330 333 336 342 345 346 345 349 353 340 337 336 321 310 288 274 272 271 272 263 260 272 261 247 253 252 235 221 220 227 238 239
254 258 257 270 275 279 291 308 305 320 328 331 334 336 343 347 349 349 353 358 348 352 348 334 310 267 258 264 260 264 255 263 276 253 235 240 246 221 231 214 225 228 211
255 249 252 266 268 287 299 305 313 324 328 331 336 337 346 351 353 359 3 3 358 14 5 13 23 27 341 266 238 251 234 230 254 277 216 226 222 186 171 157 157 159 172
Wind_Speed_850mb
10 11 15 15 18 20 22 22 23 24 25 26 27 27 27 28 31 32 34 33 39 41 35 34 33 27 26 25 27 27 25 26 28 30 30 29 28 27 26 26 26 23 24
16 18 15 15 19 24 25 27 29 32 33 32 32 32 32 31 33 32 33 34 36 40 44 44 36 34 31 27 29 31 31 30 28 28 30 30 31 31 30 29 29 27 26
16 16 16 15 18 24 27 29 29 31 35 38 37 35 34 36 39 39 37 36 36 37 45 51 50 43 40 36 32 31 32 34 32 29 29 31 31 33 33 33 31 30 32
14 20 22 23 22 27 31 33 35 36 40 42 42 40 40 43 45 43 43 42 49 57 48 44 53 56 53 49 45 41 38 38 40 35 33 32 32 32 33 35 34 32 32
22 24 26 24 22 27 30 35 37 41 43 41 39 40 41 44 46 43 44 44 50 43 35 40 43 48 54 57 54 53 49 46 46 43 40 35 34 34 34 33 34 33 32
33 26 22 18 21 26 30 36 41 44 47 45 45 46 42 39 38 35 34 34 34 38 44 47 49 50 54 54 54 56 55 51 51 48 43 42 38 35 36 36 36 35 34
26 17 17 21 24 30 34 37 47 51 53 50 52 55 55 47 32 38 23 21 31 33 26 31 37 40 44 55 61 59 59 60 57 53 52 47 44 41 38 40 39 39 37
24 25 25 25 28 35 38 42 47 44 49 49 53 52 37 61 16 25 47 37 41 36 35 39 41 46 47 48 46 49 53 56 64 64 59 57 55 51 48 43 43 42 40
27 27 29 30 33 37 40 46 40 41 46 46 37 36 28 21 66 42 60 44 46 47 44 42 43 46 46 47 51 51 52 57 61 65 62 60 59 58 55 56 50 47 45
31 31 33 35 39 41 44 38 35 36 39 41 41 34 31 39 49 44 43 64 59 57 59 54 49 47 46 53 54 56 53 46 53 63 61 63 63 60 58 60 61 55 52
34 36 37 39 40 43 44 39 35 33 32 31 32 39 41 43 44 48 59 69 78 75 71 68 64 59 52 51 53 55 60 58 56 55 57 63 65 64 64 62 64 65 58
36 38 38 39 43 44 43 36 33 30 28 28 28 31 39 44 50 53 63 77 85 90 87 85 81 74 69 62 56 54 55 61 63 67 57 62 65 64 62 63 64 66 70
38 38 39 42 45 43 41 36 30 30 28 29 33 38 39 43 47 56 65 83 77 98 100 96 89 84 80 76 70 60 57 58 61 63 64 60 64 62 60 61 60 66 69
45 46 46 44 43 42 35 30 28 27 30 35 38 40 44 44 48 56 65 79 103 98 95 93 93 93 87 79 75 71 65 58 61 61 66 66 64 63 60 61 60 59 62
60 56 47 45 41 36 28 28 26 29 32 36 41 46 51 58 61 65 73 77 85 86 106 114 95 82 87 87 78 72 71 64 60 63 63 65 69 66 68 67 60 59 60
71 65 46 42 37 28 25 24 26 28 31 38 45 50 55 59 61 68 76 85 90 88 95 96 107 93 84 80 81 79 80 76 72 67 67 67 68 69 69 69 58 56 54
74 54 44 38 31 23 22 22 23 27 33 41 50 58 57 60 67 73 80 86 88 86 98 100 95 96 88 87 81 73 67 73 78 75 69 70 68 69 68 66 64 61 62
57 48 44 34 26 22 21 20 22 31 39 47 59 57 59 65 65 78 82 84 92 99 101 108 106 104 100 89 79 71 68 66 67 72 76 75 73 72 71 69 65 60 56
54 48 41 29 22 21 20 20 26 35 41 50 62 61 66 61 68 75 87 93 95 97 100 102 108 108 104 91 76 72 68 65 69 74 79 77 74 75 71 68 64 59 55
44 42 32 25 20 19 18 23 29 39 45 53 63 64 67 62 75 84 91 100 108 108 108 94 101 101 96 84 71 68 68 68 71 72 71 71 70 73 71 72 64 58 62
40 33 27 21 18 19 20 26 32 42 49 58 66 66 69 64 74 78 92 107 109 98 99 92 87 84 90 76 71 64 63 61 64 61 60 54 62 69 71 68 64 64 62
30 28 24 21 20 18 23 28 37 46 51 61 68 65 65 65 76 82 98 106 87 79 67 63 64 73 85 79 68 61 53 48 52 32 40 46 54 61 62 62 60 56 55
26 25 22 22 19 19 25 31 39 46 54 62 65 66 63 66 76 86 108 108 94 52 43 53 58 57 65 70 64 54 44 42 39 28 15 21 34 46 50 54 52 52 50
25 22 21 20 21 21 28 32 39 46 53 62 57 56 61 69 71 83 104 112 87 46 59 61 61 59 53 45 50 42 37 35 28 29 31 31 28 17 17 32 42 46 45
25 24 20 20 20 25 28 33 38 46 55 63 49 48 57 63 67 78 90 104 83 58 78 73 59 37 33 36 27 30 26 31 27 25 20 24 25 18 12 19 29 38 36
23 22 21 19 24 25 28 31 38 47 58 57 44 43 47 53 62 72 81 88 84 78 78 60 47 30 9 19 30 28 19 24 17 9 14 24 19 19 19 18 17 18 21
Wind_Direction_850mb
341 333 359 359 353 337 324 323 313 308 310 299 293 301 275 277 290 288 285 278 274 270 269 273 270 273 267 269 273 274 277 275 273 271 266 262 261 258 258 261 264 261 257
291 313 316 331 349 337 335 331 313 304 304 309 304 293 286 287 289 293 289 284 282 276 266 265 269 272 269 264 268 269 272 274 273 273 273 266 262 258 253 252 257 262 262
298 303 304 320 332 327 330 333 326 315 307 304 301 297 291 289 285 288 289 285 286 283 275 264 262 264 267 267 263 267 272 270 268 267 269 269 266 260 256 252 247 250 258
312 311 307 314 310 314 319 324 324 321 320 314 299 297 293 294 287 283 286 279 279 291 273 271 267 264 264 264 265 264 265 270 265 262 263 264 263 263 260 255 252 246 248
294 302 313 318 308 305 313 317 320 322 326 324 312 309 301 296 299 284 287 289 278 283 270 267 276 272 266 265 265 264 263 264 267 260 258 261 261 260 259 257 255 252 249
294 290 301 316 311 311 313 311 313 317 323 321 316 313 310 308 302 300 295 289 284 289 269 267 271 270 266 266 268 265 262 260 260 261 257 255 256 258 261 259 256 252 251
272 280 296 300 302 306 313 314 314 313 317 321 319 314 312 312 308 297 291 300 290 299 277 267 270 277 274 265 263 262 265 261 257 255 259 257 251 253 258 259 258 255 253
255 264 277 292 302 310 309 305 307 309 311 318 321 324 330 325 334 300 304 305 300 289 283 272 278 276 276 266 264 259 260 261 260 257 254 255 254 257 257 257 254 254 254
248 260 269 286 301 308 311 310 308 308 309 314 319 320 324 308 314 319 314 312 309 305 301 294 285 282 281 277 269 260 261 251 254 258 256 254 255 255 256 256 255 254 252
244 255 268 284 299 306 311 312 311 308 309 311 315 317 308 304 311 314 310 310 314 310 308 303 295 288 282 271 272 265 255 253 251 250 251 254 255 255 255 254 251 253 255
254 262 272 285 296 306 310 314 317 318 316 318 320 318 315 313 310 308 310 309 309 310 309 306 303 298 290 283 277 267 256 258 254 252 250 252 254 256 255 255 254 249 250
265 270 274 285 294 303 307 314 318 322 322 317 315 314 310 311 312 311 309 308 309 308 306 303 300 298 296 290 283 278 268 257 257 255 255 252 252 253 255 254 254 253 250
266 271 278 283 290 300 304 310 314 320 316 316 315 315 310 307 307 307 309 311 308 307 306 304 302 300 295 291 285 281 272 267 257 252 251 248 245 244 250 253 255 253 251
268 273 278 276 286 294 303 301 311 316 312 317 317 316 313 311 308 306 307 309 308 305 304 300 304 302 298 296 290 283 277 269 263 257 250 246 245 240 242 249 249 254 253
277 274 272 273 282 291 294 299 305 313 318 323 322 321 318 317 312 309 308 308 307 296 300 302 297 295 295 294 289 283 275 270 262 256 255 249 245 245 243 244 253 249 252
273 271 263 270 280 285 295 300 314 325 327 328 328 325 319 321 318 317 313 309 305 297 285 293 301 297 292 287 283 277 274 270 264 256 249 248 246 245 245 244 246 246 247
269 260 261 267 273 285 292 311 320 326 327 331 334 325 320 321 316 319 317 314 313 309 293 293 290 300 296 293 280 278 279 277 262 255 248 244 244 244 244 244 247 250 251
258 256 260 262 274 281 299 308 317 325 330 333 335 329 325 323 319 322 323 323 322 312 295 288 293 288 292 289 286 275 276 280 262 251 245 242 243 242 242 244 246 248 252
251 257 257 265 273 281 295 305 317 326 333 334 335 330 328 326 326 331 332 327 313 306 296 285 287 287 284 285 284 281 278 275 263 260 253 243 237 238 238 238 238 245 240
242 249 258 271 275 294 303 313 318 326 329 333 333 330 328 326 329 337 333 322 317 307 301 286 283 281 280 279 274 278 276 274 267 265 258 249 236 234 236 237 237 236 237
237 249 265 270 278 289 300 311 317 323 327 331 333 332 329 326 333 336 328 329 316 312 305 292 279 275 276 272 271 277 274 275 272 271 258 240 232 229 232 234 236 238 237
249 261 267 266 281 292 299 309 315 318 325 329 332 332 331 332 337 337 334 338 329 315 315 304 291 266 270 266 273 275 274 274 275 265 240 236 229 229 233 232 234 238 239
254 262 266 275 286 285 301 303 310 315 324 328 333 334 337 343 341 341 343 348 337 330 334 332 302 286 280 270 272 271 265 262 263 241 199 227 233 234 237 235 230 237 245
259 268 265 276 284 288 297 302 308 315 325 330 333 336 342 345 346 345 349 353 340 337 336 321 310 288 274 272 271 272 263 260 272 261 247 253 252 235 221 220 227 238 239
254 258 257 270 275 279 291 308 305 320 328 331 334 336 343 347 349 349 353 358 348 352 348 334 310 267 258 264 260 264 255 263 276 253 235 240 246 221 231 214 225 228 211
255 249 252 266 268 287 299 305 313 324 328 331 336 337 346 351 353 359 3 3 358 14 5 13 23 27 341 266 238 251 234 230 254 277 216 226 222 186 171 157 157 159 172